Showing default

GALILEO 14 (26B), 41549

Orbit data source: Space-Track

GALILEO 14 (26B), 41549 is a payload satellite owned by GNSS Agency (ESA) that was launched on Tue, 24 May 2016 UTC via a SOYUZ-ST-B launch vehicle from the French Guiana (FRGUI). Payload-class satellites include a variety of spacecraft equipped with specific instruments for various scientific and technological missions. These include communications satellites like Starlink; space stations such as the ISS; scientific satellites like the Hubble; Earth observation satellites from companies like Planet Labs, Umbra, and HawkEye 360; GPS; miniature CubeSats for education and research; and military/defense satellites.

Loading next visibility...
Identifier
41549, 2016-030A
Orbit
Active
Country
Flag of ESAESA
Related business
Manufacturer
OHB
Mission
Operational Civil Navigation
Bus & Motor
GALILEOSAT, AOCS
Mass
733 kg wet, 660 kg dry
Launch date (UTC)
2016-05-24 (9 years ago)
Launch vehicle
SOYUZ-ST-B
Launch site
French Guiana (FRGUI)
Object type
Payload
Rocket body
Debris
Shape & HBR
Box + 2 Pan, 7.3 m
Radar Cross Section
9.223 m², Large (>1 m²)

Expand to show TLE details & history
Last TLE update: 20 hours ago

TLE from 20 hours ago
0 GALILEO 14 (26B)
1 41549U 16030A   25299.92229900  .00000007  00000-0  00000-0 0  9990
2 41549  55.1706 228.1110 0003541 349.0305  10.9818  1.70473012 58691
Epoch: 2025-10-26T22:08Z
TLE epoch observation values (Epoch: 2025-10-26T22:08:06.633Z)
Latitude
0.00003°
Longitude
-139.46117°
Altitude
23,212.268 km
Speed
3.671 km/s
True Right ascension
15h 12m 23s
True Declination
0° 00' 00"
Sunlit
Object was in daylight at epoch
Visualization orbit readout
Latitude
Unknown
Longitude
Unknown
Altitude
Unknown
Speed
Unknown
Apparent Right ascension
Unknown
Apparent Declination
Unknown
Sunlit
N/A
Visualization observer readout
Local Sidereal Time
13:41:59
Azimuth
Unknown
Elevation
Unknown
Doppler factor
Unknown
Orbital elements
Apogee altitude
23,232.781 km
Perigee altitude
23,211.818 km
Semi-major axis
29,600.437 km
Eccentricity
0.00035
Inclination
55.1706°
RAAN
228.111°
Arg. of periapsis
349.0305°
True anomaly
10.98953°
Mean anomaly
10.9818°
Eccentric anomaly
10.98567°
Mean motion
0.42618 °/min
Orbital period
844.71 mins
BSTAR
0
Loading maneuver chart data...
Computing Atmospheric mass density...
Loading historical data...
Loading historical data...
Loading historical data...
Loading historical data...
Loading historical data...
Loading historical data...
Loading historical data...
Other satellites on launch #30 in the year 2016 (2016-05-24 UTC)

Documentation

Showing up to 5 results
|